This demonstration page uses our WeatherBlox Daily Observations layout. Learn more.

Left ArrowRight Arrow

Hourly Observations for October 5, 2021

Temp ( °F °C ) Dew Point ( °F °C ) Humidity (%) Winds ( mph kmh ) Pressure ( in mb ) Visibility ( mi km ) Precip ( " mm )
12:53 am 00:53 Clear 61 16.1 38 3.3 43 43 N N/A 29.83 1010 10 16 N/A
1:53 am 01:53 Clear 60 15.6 40 4.4 47 47 N N/A 29.83 1010 10 16 N/A
2:53 am 02:53 Clear 59 15 40 4.4 49 49 N N/A 29.83 1010 10 16 N/A
3:53 am 03:53 Clear 56 13.3 39 3.9 53 53 SE 3 6 29.83 1010 10 16 N/A
4:53 am 04:53 Clear 56 13.3 39 3.9 53 53 N N/A 29.84 1010 10 16 N/A
5:53 am 05:53 Clear 55 12.8 41 5 59 59 N N/A 29.85 1011 10 16 N/A
6:53 am 06:53 Clear 53 11.7 40 4.4 61 61 N N/A 29.86 1011 10 16 N/A
7:53 am 07:53 Sunny 56 13.3 40 4.4 55 55 N N/A 29.86 1011 10 16 N/A
8:53 am 08:53 Sunny 62 16.7 42 5.6 48 48 N N/A 29.88 1012 9 14 N/A
9:53 am 09:53 Sunny 69 20.6 40 4.4 35 35 N N/A 29.89 1012 10 16 N/A
10:53 am 10:53 Sunny 73 22.8 36 2.2 26 26 S 5 7 29.88 1012 10 16 N/A
11:53 am 11:53 Sunny 74 23.3 35 1.7 24 24 N N/A 29.88 1012 10 16 N/A
12:53 pm 12:53 Sunny 76 24.4 34 1.1 22 22 VRB 3 6 29.86 1011 10 16 N/A
1:53 pm 13:53 Sunny 79 26.1 36 2.2 21 21 S 9 15 29.83 1010 10 16 N/A
2:53 pm 14:53 Sunny 82 27.8 32 undefined 16 16 SSE 10 17 29.80 1009 10 16 N/A
3:53 pm 15:53 Sunny 82 27.8 29 -1.7 14 14 S 9 15 29.80 1009 10 16 N/A
4:53 pm 16:53 Sunny 82 27.8 33 0.6 17 17 SSW 14 22 29.79 1009 10 16 N/A
5:53 pm 17:53 Sunny 81 27.2 36 2.2 20 20 S 9 15 29.78 1009 10 16 N/A
6:53 pm 18:53 Clear 76 24.4 37 2.8 24 24 WSW 6 9 29.79 1009 10 16 N/A
7:53 pm 19:53 Clear 77 25 33 0.6 20 20 S 8 13 29.79 1009 10 16 N/A
8:53 pm 20:53 Clear 73 22.8 34 1.1 24 24 W 6 9 29.80 1009 10 16 N/A
9:53 pm 21:53 Clear 73 22.8 34 1.1 24 24 S 7 11 29.82 1010 10 16 N/A
10:53 pm 22:53 Clear 72 22.2 35 1.7 26 26 SSW 6 9 29.84 1010 10 16 N/A
11:53 pm 23:53 Clear 69 20.6 37 2.8 31 31 S 8 13 29.86 1011 10 16 N/A

Powered by AerisWeather